| time (UTC) | temp C | wind direction | speed KPH | gust KPH | rain 1hr cm | rain 24hr cm | rain mn cm | humidity % | barometer mb |
| 20260902045128 | 25 | 33 | 9.7 | 27.4 | 0.00 | 0.00 | 0.00 | 87 | 1015.2 |
| 20260902044627 | 25 | 86 | 12.9 | 37.0 | 0.00 | 0.00 | 0.00 | 86 | 1015.1 |
| 20260902044356 | 25 | 105 | 19.3 | 37.0 | 0.00 | 0.00 | 0.00 | 84 | 1015.0 |
| 20260902043626 | 25 | 58 | 22.5 | 32.2 | 0.00 | 0.00 | 0.00 | 82 | 1014.7 |
| 20260902043125 | 26 | 94 | 14.5 | 25.7 | 0.00 | 0.00 | 0.00 | 83 | 1014.8 |
| 20260902042857 | 26 | 55 | 8.0 | 25.7 | 0.00 | 0.00 | 0.00 | 82 | 1014.8 |
| 20260902042125 | 26 | 98 | 14.5 | 30.6 | 0.00 | 0.00 | 0.00 | 82 | 1014.7 |
| 20260902041624 | 26 | 78 | 12.9 | 30.6 | 0.00 | 0.00 | 0.00 | 81 | 1014.5 |
| 20260902041127 | 26 | 23 | 14.5 | 27.4 | 0.00 | 0.00 | 0.00 | 81 | 1014.8 |
| 20260902040625 | 26 | 108 | 11.3 | 24.1 | 0.00 | 0.00 | 0.00 | 80 | 1014.6 |
| 20260902040356 | 26 | 33 | 11.3 | 24.1 | 0.00 | 0.00 | 0.00 | 80 | 1014.8 |
| 20260902035626 | 25 | 90 | 6.4 | 24.1 | 0.00 | 0.00 | 0.00 | 79 | 1014.7 |
| 20260902035124 | 25 | 86 | 12.9 | 24.1 | 0.00 | 0.00 | 0.00 | 80 | 1014.8 |
| 20260902034626 | 25 | 86 | 11.3 | 27.4 | 0.00 | 0.00 | 0.00 | 80 | 1014.9 |
| 20260902034124 | 25 | 75 | 12.9 | 32.2 | 0.00 | 0.00 | 0.00 | 82 | 1015.1 |
| 20260902033624 | 25 | 73 | 22.5 | 37.0 | 0.00 | 0.00 | 0.00 | 82 | 1014.9 |
| 20260902033125 | 26 | 48 | 12.9 | 37.0 | 0.00 | 0.00 | 0.00 | 82 | 1015.1 |
| 20260902032625 | 26 | 80 | 20.9 | 33.8 | 0.00 | 0.00 | 0.00 | 79 | 1014.9 |
| 20260902032125 | 26 | 64 | 12.9 | 30.6 | 0.00 | 0.00 | 0.00 | 79 | 1015.3 |
| 20260902031625 | 26 | 76 | 16.1 | 24.1 | 0.00 | 0.00 | 0.00 | 78 | 1015.1 |
| 20260902031125 | 26 | 55 | 11.3 | 27.4 | 0.00 | 0.00 | 0.00 | 79 | 1015.2 |
| 20260902030624 | 26 | 76 | 16.1 | 27.4 | 0.00 | 0.00 | 0.00 | 80 | 1015.0 |
| 20260902030124 | 26 | 111 | 9.7 | 30.6 | 0.00 | 0.00 | 0.00 | 81 | 1015.3 |
| 20260902025856 | 26 | 88 | 19.3 | 33.8 | 0.00 | 0.00 | 0.00 | 80 | 1015.0 |
| 20260902025124 | 26 | 76 | 12.9 | 33.8 | 0.00 | 0.00 | 0.00 | 79 | 1015.0 |
| 20260902024626 | 27 | 84 | 17.7 | 33.8 | 0.00 | 0.00 | 0.00 | 79 | 1014.8 |
| 20260902024124 | 26 | 86 | 14.5 | 33.8 | 0.00 | 0.00 | 0.00 | 75 | 1014.8 |
| 20260902023613 | 27 | 110 | 17.7 | 30.6 | 0.00 | 0.00 | 0.00 | 77 | 1014.9 |
| 20260902023113 | 26 | 106 | 19.3 | 30.6 | 0.00 | 0.00 | 0.00 | 76 | 1014.9 |
| 20260902022613 | 27 | 73 | 16.1 | 30.6 | 0.00 | 0.00 | 0.00 | 78 | 1014.8 |
| 20260902022113 | 27 | 53 | 11.3 | 30.6 | 0.00 | 0.00 | 0.00 | 78 | 1014.7 |
| 20260902021613 | 27 | 79 | 12.9 | 32.2 | 0.00 | 0.00 | 0.00 | 77 | 1014.9 |
| 20260902021113 | 27 | 105 | 14.5 | 33.8 | 0.00 | 0.00 | 0.00 | 76 | 1014.9 |
| 20260902020613 | 27 | 35 | 14.5 | 33.8 | 0.00 | 0.00 | 0.00 | 78 | 1014.7 |
| 20260902020344 | 27 | 66 | 6.4 | 30.6 | 0.00 | 0.00 | 0.00 | 78 | 1014.9 |
| 20260902015613 | 27 | 75 | 9.7 | 33.8 | 0.00 | 0.00 | 0.00 | 79 | 1014.9 |
| 20260902015113 | 27 | 89 | 17.7 | 33.8 | 0.00 | 0.00 | 0.00 | 77 | 1014.9 |
| 20260902014613 | 27 | 58 | 14.5 | 30.6 | 0.00 | 0.00 | 0.00 | 77 | 1015.0 |
| 20260902014112 | 27 | 84 | 16.1 | 30.6 | 0.00 | 0.00 | 0.00 | 76 | 1015.1 |
| 20260902013843 | 27 | 108 | 14.5 | 30.6 | 0.00 | 0.00 | 0.00 | 77 | 1015.0 |
| 20260902013112 | 27 | 73 | 16.1 | 30.6 | 0.00 | 0.00 | 0.00 | 76 | 1015.0 |
| 20260902012612 | 27 | 78 | 22.5 | 33.8 | 0.00 | 0.00 | 0.00 | 76 | 1015.3 |
| 20260902012112 | 27 | 88 | 19.3 | 33.8 | 0.00 | 0.00 | 0.00 | 77 | 1015.0 |
| 20260902011611 | 27 | 64 | 14.5 | 45.1 | 0.00 | 0.00 | 0.00 | 75 | 1015.1 |
| 20260902011111 | 27 | 80 | 14.5 | 45.1 | 0.00 | 0.00 | 0.00 | 75 | 1014.9 |
| 20260902010611 | 27 | 82 | 14.5 | 32.2 | 0.00 | 0.00 | 0.00 | 76 | 1015.1 |
| 20260902010111 | 27 | 100 | 17.7 | 37.0 | 0.00 | 0.00 | 0.00 | 76 | 1015.0 |
| 20260902005612 | 27 | 84 | 22.5 | 37.0 | 0.00 | 0.00 | 0.00 | 76 | 1015.1 |
| 20260902005111 | 27 | 50 | 14.5 | 33.8 | 0.00 | 0.00 | 0.00 | 77 | 1015.2 |
| 20260902004612 | 27 | 47 | 12.9 | 33.8 | 0.00 | 0.00 | 0.00 | 75 | 1015.3 |
| 20260902004111 | 27 | 56 | 22.5 | 30.6 | 0.00 | 0.00 | 0.00 | 75 | 1015.4 |
| 20260902003612 | 27 | 54 | 16.1 | 30.6 | 0.00 | 0.00 | 0.00 | 76 | 1015.3 |
| 20260902003112 | 27 | 53 | 22.5 | 33.8 | 0.00 | 0.00 | 0.00 | 75 | 1015.2 |
| 20260902002612 | 27 | 76 | 17.7 | 38.6 | 0.00 | 0.00 | 0.00 | 75 | 1015.3 |
| 20260902002112 | 27 | 91 | 16.1 | 38.6 | 0.00 | 0.00 | 0.00 | 75 | 1015.3 |
| 20260902001600 | 27 | 49 | 11.3 | 33.8 | 0.00 | 0.00 | 0.00 | 76 | 1015.4 |
| 20260902001100 | 27 | 47 | 22.5 | 32.2 | 0.00 | 0.00 | 0.00 | 78 | 1015.4 |
| 20260902000600 | 27 | 83 | 19.3 | 30.6 | 0.00 | 0.00 | 0.00 | 78 | 1015.2 |
| 20260902000100 | 27 | 86 | 12.9 | 30.6 | 0.00 | 0.00 | 0.00 | 76 | 1015.2 |
| 20260901235600 | 27 | 63 | 19.3 | 30.6 | 0.00 | 0.00 | 0.00 | 79 | 1015.4 |
| 20260901235100 | 27 | 62 | 19.3 | 30.6 | 0.00 | 0.00 | 0.00 | 78 | 1015.5 |
| 20260901234600 | 28 | 41 | 16.1 | 30.6 | 0.00 | 0.00 | 0.00 | 77 | 1015.6 |
| 20260901234318 | 28 | 74 | 17.7 | 30.6 | 0.00 | 0.00 | 0.00 | 76 | 1015.6 |
| 20260901233549 | 28 | 82 | 17.7 | 27.4 | 0.00 | 0.00 | 0.00 | 75 | 1015.6 |
| 20260901233036 | 28 | 56 | 11.3 | 37.0 | 0.00 | 0.00 | 0.00 | 76 | 1015.6 |
| 20260901232807 | 28 | 69 | 19.3 | 37.0 | 0.00 | 0.00 | 0.00 | 74 | 1015.6 |
| 20260901232023 | 28 | 75 | 19.3 | 30.6 | 0.00 | 0.00 | 0.00 | 74 | 1015.7 |
| 20260901231524 | 28 | 53 | 14.5 | 32.2 | 0.00 | 0.00 | 0.00 | 76 | 1015.9 |
| 20260901231024 | 28 | 77 | 16.1 | 41.8 | 0.00 | 0.00 | 0.00 | 75 | 1015.8 |
| 20260901230523 | 28 | 77 | 19.3 | 41.8 | 0.00 | 0.00 | 0.00 | 73 | 1016.1 |
| 20260901230024 | 28 | 91 | 17.7 | 37.0 | 0.00 | 0.00 | 0.00 | 74 | 1015.9 |
| 20260901225524 | 28 | 76 | 14.5 | 37.0 | 0.00 | 0.00 | 0.00 | 74 | 1016.1 |
| 20260901225024 | 28 | 101 | 22.5 | 32.2 | 0.00 | 0.00 | 0.00 | 74 | 1016.1 |
| 20260901224755 | 28 | 104 | 14.5 | 33.8 | 0.00 | 0.00 | 0.00 | 74 | 1016.1 |
| 20260901224024 | 28 | 91 | 14.5 | 33.8 | 0.00 | 0.00 | 0.00 | 74 | 1016.1 |
| 20260901223524 | 28 | 69 | 14.5 | 37.0 | 0.00 | 0.00 | 0.00 | 75 | 1016.0 |
| 20260901223026 | 28 | 60 | 11.3 | 37.0 | 0.00 | 0.00 | 0.00 | 75 | 1016.1 |
| 20260901222523 | 28 | 30 | 12.9 | 33.8 | 0.00 | 0.00 | 0.00 | 74 | 1016.0 |
| 20260901222024 | 28 | 83 | 16.1 | 30.6 | 0.00 | 0.00 | 0.00 | 75 | 1016.0 |
| 20260901221755 | 27 | 102 | 12.9 | 30.6 | 0.00 | 0.00 | 0.00 | 76 | 1016.1 |
| 20260901221629 | 27 | 36 | 9.7 | 30.6 | 0.00 | 0.00 | 0.00 | 75 | 1016.2 |
| 20260901220523 | 28 | 67 | 17.7 | 37.0 | 0.00 | 0.00 | 0.00 | 76 | 1016.2 |
| 20260901220255 | 27 | 64 | 19.3 | 37.0 | 0.00 | 0.00 | 0.00 | 75 | 1016.5 |
| 20260901215518 | 27 | 83 | 17.7 | 33.8 | 0.00 | 0.00 | 0.00 | 77 | 1016.4 |
| 20260901215012 | 27 | 58 | 9.7 | 38.6 | 0.00 | 0.00 | 0.00 | 76 | 1016.4 |
| 20260901214511 | 28 | 78 | 11.3 | 38.6 | 0.00 | 0.00 | 0.00 | 76 | 1016.6 |
| 20260901214011 | 27 | 28 | 14.5 | 30.6 | 0.00 | 0.00 | 0.00 | 77 | 1016.3 |
| 20260901213512 | 27 | 57 | 19.3 | 27.4 | 0.00 | 0.00 | 0.00 | 78 | 1016.7 |
| 20260901213011 | 27 | 44 | 9.7 | 32.2 | 0.00 | 0.00 | 0.00 | 77 | 1016.5 |
| 20260901212512 | 27 | 58 | 14.5 | 32.2 | 0.00 | 0.00 | 0.00 | 78 | 1016.6 |
| 20260901212243 | 27 | 33 | 22.5 | 30.6 | 0.00 | 0.00 | 0.00 | 77 | 1016.7 |
| 20260901211511 | 27 | 95 | 16.1 | 30.6 | 0.00 | 0.00 | 0.00 | 77 | 1016.7 |
| 20260901211011 | 27 | 27 | 16.1 | 30.6 | 0.00 | 0.00 | 0.00 | 77 | 1016.7 |
| 20260901210512 | 27 | 82 | 14.5 | 30.6 | 0.00 | 0.00 | 0.00 | 76 | 1016.9 |
| 20260901210243 | 27 | 56 | 17.7 | 27.4 | 0.00 | 0.00 | 0.00 | 75 | 1016.8 |
| 20260901205518 | 27 | 76 | 11.3 | 25.7 | 0.00 | 0.00 | 0.00 | 76 | 1016.9 |
| 20260901205512 | 27 | 41 | 12.9 | 27.4 | 0.00 | 0.00 | 0.00 | 77 | 1016.5 |
| 20260901204512 | 27 | 41 | 14.5 | 27.4 | 0.00 | 0.00 | 0.00 | 76 | 1016.9 |
| 20260901204012 | 28 | 67 | 9.7 | 27.4 | 0.00 | 0.00 | 0.00 | 76 | 1016.8 |
| 20260901203518 | 27 | 106 | 6.4 | 24.1 | 0.00 | 0.00 | 0.00 | 75 | 1016.8 |
| 20260901203511 | 28 | 49 | 14.5 | 25.7 | 0.00 | 0.00 | 0.00 | 75 | 1016.9 |
| 20260901202511 | 27 | 112 | 12.9 | 24.1 | 0.00 | 0.00 | 0.00 | 76 | 1016.8 |
| 20260901202011 | 27 | 43 | 12.9 | 27.4 | 0.00 | 0.00 | 0.00 | 76 | 1017.0 |
| 20260901201742 | 27 | 110 | 14.5 | 27.4 | 0.00 | 0.00 | 0.00 | 74 | 1016.9 |
| 20260901201011 | 27 | 66 | 9.7 | 25.7 | 0.00 | 0.00 | 0.00 | 74 | 1016.8 |
| 20260901200511 | 27 | 69 | 12.9 | 25.7 | 0.00 | 0.00 | 0.00 | 75 | 1017.0 |
| 20260901200011 | 27 | 57 | 8.0 | 30.6 | 0.00 | 0.00 | 0.00 | 74 | 1017.3 |
| 20260901195511 | 27 | 89 | 16.1 | 30.6 | 0.00 | 0.00 | 0.00 | 75 | 1017.1 |
| 20260901195011 | 27 | 126 | 8.0 | 25.7 | 0.00 | 0.00 | 0.00 | 76 | 1016.9 |
| 20260901194511 | 27 | 85 | 9.7 | 25.7 | 0.00 | 0.00 | 0.00 | 76 | 1016.9 |
| 20260901194011 | 27 | 82 | 16.1 | 24.1 | 0.00 | 0.00 | 0.00 | 75 | 1016.9 |
| 20260901193511 | 27 | 118 | 4.8 | 30.6 | 0.00 | 0.00 | 0.00 | 74 | 1017.2 |
| 20260901193012 | 27 | 104 | 17.7 | 30.6 | 0.00 | 0.00 | 0.00 | 75 | 1017.1 |
| 20260901192512 | 27 | 77 | 16.1 | 24.1 | 0.00 | 0.00 | 0.00 | 75 | 1017.2 |
| 20260901192012 | 26 | 38 | 9.7 | 27.4 | 0.00 | 0.00 | 0.00 | 76 | 1017.1 |
| 20260901191512 | 26 | 82 | 12.9 | 27.4 | 0.00 | 0.00 | 0.00 | 75 | 1017.1 |
| 20260901191012 | 27 | 76 | 9.7 | 24.1 | 0.00 | 0.00 | 0.00 | 74 | 1017.1 |
| 20260901190512 | 27 | 67 | 11.3 | 30.6 | 0.00 | 0.00 | 0.00 | 76 | 1017.0 |
| 20260901190012 | 26 | 62 | 14.5 | 30.6 | 0.00 | 0.00 | 0.00 | 75 | 1017.2 |
| 20260901185514 | 26 | 89 | 11.3 | 24.1 | 0.00 | 0.00 | 0.00 | 78 | 1017.0 |
| 20260901185012 | 26 | 71 | 14.5 | 24.1 | 0.00 | 0.00 | 0.00 | 77 | 1017.1 |
| 20260901184512 | 26 | 98 | 14.5 | 25.7 | 0.00 | 0.00 | 0.00 | 77 | 1017.0 |
| 20260901184011 | 26 | 86 | 14.5 | 25.7 | 0.00 | 0.00 | 0.00 | 78 | 1017.0 |
| 20260901183518 | 26 | 97 | 9.7 | 27.4 | 0.00 | 0.00 | 0.00 | 79 | 1016.8 |
| 20260901183511 | 26 | 104 | 12.9 | 27.4 | 0.00 | 0.00 | 0.00 | 78 | 1017.1 |
| 20260901182512 | 26 | 89 | 17.7 | 25.7 | 0.00 | 0.00 | 0.00 | 79 | 1017.0 |
| 20260901182243 | 26 | 22 | 12.9 | 22.5 | 0.00 | 0.00 | 0.00 | 79 | 1017.0 |
| 20260901181512 | 26 | 79 | 9.7 | 16.1 | 0.00 | 0.00 | 0.00 | 79 | 1016.8 |
| 20260901181012 | 26 | 62 | 11.3 | 24.1 | 0.00 | 0.00 | 0.00 | 79 | 1016.8 |
| 20260901180743 | 26 | 109 | 14.5 | 24.1 | 0.00 | 0.00 | 0.00 | 78 | 1016.7 |
| 20260901180011 | 26 | 83 | 9.7 | 22.5 | 0.00 | 0.00 | 0.00 | 79 | 1016.9 |
| 20260901175511 | 26 | 110 | 9.7 | 24.1 | 0.00 | 0.00 | 0.00 | 78 | 1016.8 |
| 20260901175011 | 26 | 91 | 11.3 | 24.1 | 0.00 | 0.00 | 0.00 | 78 | 1016.8 |
| 20260901174743 | 26 | 73 | 9.7 | 22.5 | 0.00 | 0.00 | 0.00 | 79 | 1016.8 |
| 20260901174016 | 25 | 87 | 12.9 | 24.1 | 0.00 | 0.00 | 0.00 | 79 | 1016.9 |
| 20260901173743 | 25 | 56 | 12.9 | 24.1 | 0.00 | 0.00 | 0.00 | 79 | 1016.9 |
| 20260901173617 | 25 | 83 | 11.3 | 17.7 | 0.00 | 0.00 | 0.00 | 78 | 1016.9 |
| 20260901172731 | 25 | 63 | 8.0 | 17.7 | 0.00 | 0.00 | 0.00 | 78 | 1016.7 |
| 20260901172000 | 25 | 107 | 8.0 | 20.9 | 0.00 | 0.00 | 0.00 | 78 | 1016.7 |
| 20260901171501 | 25 | 95 | 9.7 | 22.5 | 0.00 | 0.00 | 0.00 | 77 | 1016.6 |
| 20260901171231 | 25 | 58 | 3.2 | 22.5 | 0.00 | 0.00 | 0.00 | 78 | 1016.5 |
| 20260901170455 | 25 | 84 | 4.8 | 16.1 | 0.00 | 0.00 | 0.00 | 78 | 1016.5 |
| 20260901165947 | 25 | 78 | 6.4 | 20.9 | 0.00 | 0.00 | 0.00 | 77 | 1016.4 |
| 20260901165447 | 25 | 100 | 8.0 | 30.6 | 0.00 | 0.00 | 0.00 | 78 | 1016.8 |
| 20260901164949 | 25 | 77 | 9.7 | 30.6 | 0.00 | 0.00 | 0.00 | 77 | 1016.4 |
| 20260901164447 | 25 | 68 | 8.0 | 17.7 | 0.00 | 0.00 | 0.00 | 77 | 1016.6 |
| 20260901163947 | 25 | 83 | 6.4 | 25.7 | 0.00 | 0.00 | 0.00 | 77 | 1016.5 |
| 20260901163448 | 25 | 78 | 4.8 | 25.7 | 0.00 | 0.00 | 0.00 | 79 | 1016.7 |
| 20260901162942 | 25 | 91 | 4.8 | 20.9 | 0.00 | 0.00 | 0.00 | 78 | 1016.6 |
| 20260901162436 | 25 | 101 | 3.2 | 20.9 | 0.00 | 0.00 | 0.00 | 78 | 1016.7 |
| 20260901161935 | 25 | 110 | 9.7 | 20.9 | 0.00 | 0.00 | 0.00 | 78 | 1016.5 |
| 20260901161435 | 25 | 98 | 6.4 | 20.9 | 0.00 | 0.00 | 0.00 | 77 | 1016.3 |
| 20260901160935 | 25 | 70 | 6.4 | 20.9 | 0.00 | 0.00 | 0.00 | 78 | 1016.5 |
| 20260901160436 | 25 | 58 | 6.4 | 17.7 | 0.00 | 0.00 | 0.00 | 78 | 1016.3 |
| 20260901155936 | 25 | 75 | 6.4 | 17.7 | 0.00 | 0.00 | 0.00 | 78 | 1016.2 |
| 20260901155424 | 25 | 100 | 6.4 | 22.5 | 0.00 | 0.00 | 0.00 | 78 | 1016.0 |
| 20260901154924 | 25 | 71 | 9.7 | 22.5 | 0.00 | 0.00 | 0.00 | 77 | 1016.3 |
| 20260901154655 | 25 | 57 | 6.4 | 22.5 | 0.00 | 0.00 | 0.00 | 77 | 1016.2 |
| 20260901153925 | 25 | 103 | 12.9 | 24.1 | 0.00 | 0.00 | 0.00 | 76 | 1016.4 |
| 20260901153424 | 25 | 70 | 8.0 | 24.1 | 0.00 | 0.00 | 0.00 | 78 | 1016.2 |
| 20260901152923 | 25 | 70 | 9.7 | 25.7 | 0.00 | 0.00 | 0.00 | 77 | 1016.3 |
| 20260901152423 | 25 | 30 | 9.7 | 25.7 | 0.00 | 0.00 | 0.00 | 77 | 1016.1 |
| 20260901151912 | 25 | 102 | 9.7 | 24.1 | 0.00 | 0.00 | 0.00 | 78 | 1016.1 |
| 20260901151411 | 25 | 67 | 9.7 | 22.5 | 0.00 | 0.00 | 0.00 | 78 | 1015.8 |
| 20260901150911 | 25 | 72 | 8.0 | 20.9 | 0.00 | 0.00 | 0.00 | 77 | 1016.0 |
| 20260901150644 | 25 | 91 | 11.3 | 22.5 | 0.00 | 0.00 | 0.00 | 78 | 1015.9 |
| 20260901145912 | 25 | 86 | 6.4 | 22.5 | 0.00 | 0.00 | 0.00 | 79 | 1015.7 |
| 20260901145412 | 25 | 41 | 9.7 | 22.5 | 0.00 | 0.00 | 0.00 | 79 | 1015.8 |
| 20260901144912 | 25 | 90 | 6.4 | 22.5 | 0.00 | 0.00 | 0.00 | 79 | 1015.6 |
| 20260901144405 | 25 | 122 | 11.3 | 22.5 | 0.00 | 0.00 | 0.00 | 79 | 1015.7 |
| 20260901143859 | 25 | 90 | 9.7 | 22.5 | 0.00 | 0.00 | 0.00 | 78 | 1015.8 |
| 20260901143359 | 25 | 86 | 12.9 | 22.5 | 0.00 | 0.00 | 0.00 | 78 | 1015.6 |
| 20260901142859 | 25 | 76 | 6.4 | 24.1 | 0.00 | 0.00 | 0.00 | 79 | 1015.8 |
| 20260901142400 | 25 | 99 | 9.7 | 24.1 | 0.00 | 0.00 | 0.00 | 78 | 1015.8 |
| 20260901141901 | 25 | 58 | 11.3 | 22.5 | 0.00 | 0.00 | 0.00 | 79 | 1015.7 |
| 20260901141400 | 25 | 84 | 9.7 | 22.5 | 0.00 | 0.00 | 0.00 | 78 | 1015.7 |
| 20260901140855 | 25 | 72 | 11.3 | 22.5 | 0.00 | 0.00 | 0.00 | 78 | 1015.8 |
| 20260901140347 | 25 | 114 | 6.4 | 16.1 | 0.00 | 0.00 | 0.00 | 78 | 1015.8 |
| 20260901135847 | 25 | 67 | 6.4 | 16.1 | 0.00 | 0.00 | 0.00 | 78 | 1015.4 |
| 20260901135353 | 25 | 102 | 9.7 | 22.5 | 0.00 | 0.00 | 0.00 | 76 | 1015.8 |
| 20260901135347 | 25 | 55 | 8.0 | 22.5 | 0.00 | 0.00 | 0.00 | 77 | 1015.7 |
| 20260901134347 | 25 | 91 | 9.7 | 22.5 | 0.00 | 0.00 | 0.00 | 76 | 1015.5 |
| 20260901133848 | 25 | 60 | 12.9 | 22.5 | 0.00 | 0.00 | 0.00 | 76 | 1015.5 |
| 20260901133342 | 25 | 97 | 9.7 | 20.9 | 0.00 | 0.00 | 0.00 | 75 | 1015.6 |
| 20260901132835 | 25 | 95 | 6.4 | 22.5 | 0.00 | 0.00 | 0.00 | 75 | 1015.6 |
| 20260901132335 | 25 | 108 | 11.3 | 22.5 | 0.00 | 0.00 | 0.00 | 75 | 1016.1 |
| 20260901131836 | 25 | 70 | 9.7 | 22.5 | 0.00 | 0.00 | 0.00 | 75 | 1015.8 |
| 20260901131606 | 25 | 93 | 9.7 | 22.5 | 0.00 | 0.00 | 0.00 | 76 | 1015.7 |
| 20260901130836 | 25 | 121 | 6.4 | 24.1 | 0.00 | 0.00 | 0.00 | 77 | 1015.7 |
| 20260901130335 | 25 | 72 | 9.7 | 24.1 | 0.00 | 0.00 | 0.00 | 77 | 1015.7 |
| 20260901125823 | 25 | 83 | 9.7 | 24.1 | 0.00 | 0.00 | 0.00 | 77 | 1015.7 |
| 20260901125324 | 25 | 119 | 9.7 | 20.9 | 0.00 | 0.00 | 0.00 | 78 | 1015.4 |
| 20260901125054 | 25 | 85 | 6.4 | 24.1 | 0.00 | 0.00 | 0.00 | 78 | 1015.7 |
| 20260901124323 | 25 | 71 | 6.4 | 25.7 | 0.00 | 0.00 | 0.00 | 77 | 1015.6 |
| 20260901124055 | 25 | 86 | 6.4 | 25.7 | 0.00 | 0.00 | 0.00 | 78 | 1015.8 |
| 20260901123324 | 25 | 68 | 14.5 | 25.7 | 0.00 | 0.00 | 0.00 | 79 | 1015.8 |
| 20260901123056 | 25 | 76 | 6.4 | 25.7 | 0.00 | 0.00 | 0.00 | 78 | 1016.1 |
| 20260901122323 | 25 | 99 | 11.3 | 24.1 | 0.00 | 0.00 | 0.00 | 78 | 1016.1 |
| 20260901121823 | 25 | 90 | 6.4 | 24.1 | 0.00 | 0.00 | 0.00 | 78 | 1016.0 |
| 20260901121325 | 25 | 66 | 9.7 | 27.4 | 0.00 | 0.00 | 0.00 | 78 | 1016.1 |
| 20260901121054 | 25 | 87 | 17.7 | 27.4 | 0.00 | 0.00 | 0.00 | 77 | 1016.1 |
| 20260901120324 | 25 | 102 | 12.9 | 25.7 | 0.00 | 0.00 | 0.00 | 77 | 1016.0 |
| 20260901120055 | 25 | 110 | 6.4 | 25.7 | 0.00 | 0.00 | 0.00 | 77 | 1016.3 |
| 20260901115325 | 25 | 91 | 9.7 | 22.5 | 0.00 | 0.00 | 0.00 | 77 | 1016.1 |
| 20260901114824 | 25 | 106 | 9.7 | 24.1 | 0.00 | 0.00 | 0.00 | 78 | 1016.2 |
| 20260901114325 | 25 | 126 | 6.4 | 25.7 | 0.00 | 0.00 | 0.00 | 78 | 1016.2 |
| 20260901113824 | 25 | 99 | 8.0 | 25.7 | 0.00 | 0.00 | 0.00 | 77 | 1016.3 |
| 20260901113556 | 25 | 78 | 17.7 | 25.7 | 0.00 | 0.00 | 0.00 | 77 | 1016.3 |
| 20260901112825 | 25 | 104 | 12.9 | 25.7 | 0.00 | 0.00 | 0.00 | 77 | 1016.0 |
| 20260901112325 | 25 | 94 | 4.8 | 32.2 | 0.00 | 0.00 | 0.00 | 76 | 1016.4 |
| 20260901112055 | 25 | 88 | 11.3 | 32.2 | 0.00 | 0.00 | 0.00 | 76 | 1016.4 |
| 20260901111600 | 25 | 85 | 6.4 | 27.4 | 0.00 | 0.00 | 0.00 | 79 | 1016.4 |
| 20260901111324 | 25 | 80 | 14.5 | 24.1 | 0.00 | 0.00 | 0.00 | 77 | 1016.5 |
| 20260901110323 | 25 | 87 | 11.3 | 27.4 | 0.00 | 0.00 | 0.00 | 78 | 1016.4 |
| 20260901105823 | 25 | 107 | 9.7 | 27.4 | 0.00 | 0.00 | 0.00 | 78 | 1016.6 |
| 20260901105325 | 25 | 92 | 17.7 | 32.2 | 0.00 | 0.00 | 0.00 | 77 | 1016.8 |
| 20260901104824 | 25 | 82 | 14.5 | 25.7 | 0.00 | 0.00 | 0.00 | 79 | 1016.5 |
| 20260901104323 | 25 | 68 | 8.0 | 25.7 | 0.00 | 0.00 | 0.00 | 79 | 1016.5 |
| 20260901103823 | 25 | 111 | 11.3 | 25.7 | 0.00 | 0.00 | 0.00 | 79 | 1016.8 |
| 20260901103323 | 25 | 92 | 8.0 | 27.4 | 0.00 | 0.00 | 0.00 | 78 | 1016.5 |
| 20260901103042 | 25 | 80 | 17.7 | 27.4 | 0.00 | 0.00 | 0.00 | 78 | 1016.5 |
| 20260901102311 | 25 | 114 | 8.0 | 25.7 | 0.00 | 0.00 | 0.00 | 77 | 1016.8 |
| 20260901101812 | 25 | 99 | 8.0 | 25.7 | 0.00 | 0.00 | 0.00 | 77 | 1016.7 |
| 20260901101312 | 25 | 119 | 12.9 | 25.7 | 0.00 | 0.03 | 0.00 | 76 | 1016.6 |
| 20260901100812 | 25 | 101 | 17.7 | 25.7 | 0.00 | 0.03 | 0.00 | 77 | 1016.7 |
| 20260901100313 | 25 | 69 | 17.7 | 30.6 | 0.00 | 0.05 | 0.00 | 77 | 1016.7 |
| 20260901095812 | 25 | 121 | 14.5 | 30.6 | 0.00 | 0.05 | 0.05 | 76 | 1016.9 |
| 20260901095312 | 25 | 68 | 12.9 | 25.7 | 0.00 | 0.05 | 0.05 | 77 | 1016.9 |
| 20260901094812 | 25 | 103 | 12.9 | 27.4 | 0.00 | 0.05 | 0.05 | 77 | 1016.8 |
| 20260901094311 | 25 | 95 | 9.7 | 32.2 | 0.00 | 0.05 | 0.05 | 78 | 1016.9 |
| 20260901093812 | 25 | 76 | 14.5 | 37.0 | 0.00 | 0.05 | 0.05 | 77 | 1017.0 |
| 20260901093311 | 25 | 124 | 8.0 | 37.0 | 0.00 | 0.05 | 0.05 | 77 | 1017.1 |
| 20260901092801 | 25 | 83 | 12.9 | 33.8 | 0.00 | 0.05 | 0.05 | 78 | 1017.1 |
| 20260901092301 | 25 | 81 | 20.9 | 33.8 | 0.00 | 0.05 | 0.05 | 77 | 1017.2 |
| 20260901092019 | 25 | 107 | 12.9 | 27.4 | 0.00 | 0.05 | 0.05 | 77 | 1017.2 |
| 20260901091248 | 25 | 125 | 8.0 | 30.6 | 0.00 | 0.05 | 0.05 | 78 | 1017.3 |
| 20260901090753 | 25 | 93 | 14.5 | 33.8 | 0.00 | 0.05 | 0.05 | 76 | 1017.0 |
| 20260901090748 | 25 | 90 | 16.1 | 30.6 | 0.00 | 0.05 | 0.05 | 77 | 1017.4 |
| 20260901085748 | 25 | 122 | 8.0 | 33.8 | 0.00 | 0.13 | 0.05 | 77 | 1017.1 |
| 20260901085518 | 25 | 90 | 16.1 | 32.2 | 0.00 | 0.13 | 0.05 | 77 | 1017.4 |
| 20260901084748 | 25 | 101 | 12.9 | 32.2 | 0.00 | 0.13 | 0.05 | 76 | 1017.3 |
| 20260901084248 | 25 | 105 | 17.7 | 30.6 | 0.00 | 0.13 | 0.05 | 75 | 1017.3 |
| 20260901083748 | 25 | 58 | 20.9 | 32.2 | 0.00 | 0.13 | 0.05 | 76 | 1017.1 |
| 20260901083248 | 25 | 89 | 11.3 | 32.2 | 0.00 | 0.13 | 0.05 | 77 | 1017.2 |
| 20260901082747 | 25 | 77 | 14.5 | 30.6 | 0.00 | 0.13 | 0.05 | 77 | 1017.3 |
| 20260901082248 | 25 | 110 | 14.5 | 32.2 | 0.00 | 0.13 | 0.05 | 76 | 1017.7 |
| 20260901081737 | 25 | 125 | 19.3 | 32.2 | 0.00 | 0.13 | 0.05 | 75 | 1017.5 |
| 20260901081236 | 25 | 59 | 17.7 | 32.2 | 0.00 | 0.13 | 0.05 | 75 | 1017.5 |
| 20260901080734 | 25 | 86 | 16.1 | 30.6 | 0.00 | 0.13 | 0.05 | 75 | 1017.6 |
| 20260901080506 | 25 | 64 | 14.5 | 38.6 | 0.00 | 0.13 | 0.05 | 77 | 1017.4 |
| 20260901075734 | 25 | 49 | 19.3 | 38.6 | 0.00 | 0.13 | 0.05 | 78 | 1017.4 |
| 20260901075231 | 25 | 68 | 22.5 | 32.2 | 0.00 | 0.13 | 0.05 | 78 | 1017.4 |
| 20260901074730 | 25 | 69 | 11.3 | 37.0 | 0.00 | 0.13 | 0.05 | 78 | 1017.4 |
| 20260901074231 | 25 | 99 | 19.3 | 37.0 | 0.00 | 0.15 | 0.05 | 77 | 1017.3 |
| 20260901073729 | 25 | 89 | 25.7 | 37.0 | 0.00 | 0.28 | 0.05 | 77 | 1017.4 |
| 20260901073229 | 25 | 78 | 20.9 | 37.0 | 0.00 | 0.28 | 0.05 | 78 | 1017.1 |
| 20260901072730 | 25 | 91 | 12.9 | 32.2 | 0.00 | 0.33 | 0.05 | 78 | 1017.3 |
| 20260901072456 | 25 | 102 | 14.5 | 32.2 | 0.00 | 0.36 | 0.05 | 78 | 1017.2 |
| 20260901071725 | 25 | 90 | 12.9 | 33.8 | 0.00 | 0.36 | 0.05 | 77 | 1017.2 |
| 20260901071227 | 26 | 103 | 16.1 | 33.8 | 0.00 | 0.36 | 0.05 | 78 | 1017.0 |
| 20260901070727 | 25 | 76 | 27.4 | 33.8 | 0.00 | 0.36 | 0.05 | 78 | 1017.0 |
| 20260901070224 | 26 | 66 | 22.5 | 33.8 | 0.00 | 0.36 | 0.05 | 78 | 1017.1 |
| 20260901065722 | 26 | 66 | 19.3 | 30.6 | 0.00 | 0.36 | 0.05 | 78 | 1017.0 |
| 20260901065223 | 25 | 71 | 17.7 | 30.6 | 0.00 | 0.36 | 0.05 | 77 | 1016.9 |
| 20260901064722 | 25 | 92 | 9.7 | 30.6 | 0.00 | 0.36 | 0.05 | 76 | 1016.9 |
| 20260901064222 | 25 | 117 | 14.5 | 30.6 | 0.00 | 0.36 | 0.05 | 75 | 1016.7 |
| 20260901063953 | 25 | 84 | 8.0 | 27.4 | 0.00 | 0.36 | 0.05 | 76 | 1016.8 |
| 20260901063221 | 25 | 111 | 14.5 | 27.4 | 0.00 | 0.36 | 0.05 | 77 | 1016.6 |
| 20260901062954 | 25 | 62 | 16.1 | 33.8 | 0.00 | 0.36 | 0.05 | 77 | 1016.7 |
| 20260901062222 | 25 | 110 | 8.0 | 33.8 | 0.00 | 0.36 | 0.05 | 77 | 1016.7 |
| 20260901061721 | 25 | 82 | 12.9 | 33.8 | 0.00 | 0.36 | 0.05 | 77 | 1016.5 |
| 20260901061222 | 26 | 72 | 19.3 | 33.8 | 0.00 | 0.36 | 0.05 | 76 | 1016.5 |
| 20260901060722 | 26 | 62 | 8.0 | 41.8 | 0.00 | 0.36 | 0.05 | 76 | 1016.9 |
| 20260901060223 | 26 | 127 | 12.9 | 41.8 | 0.00 | 0.36 | 0.05 | 76 | 1016.8 |
| 20260901055722 | 26 | 151 | 12.9 | 30.6 | 0.00 | 0.36 | 0.05 | 76 | 1016.6 |
| 20260901055222 | 26 | 100 | 11.3 | 32.2 | 0.00 | 0.36 | 0.05 | 76 | 1016.5 |
| 20260901054727 | 26 | 113 | 12.9 | 33.8 | 0.00 | 0.36 | 0.05 | 75 | 1016.5 |
| 20260901054722 | 26 | 85 | 20.9 | 27.4 | 0.00 | 0.36 | 0.05 | 75 | 1016.8 |
| 20260901053722 | 26 | 92 | 12.9 | 33.8 | 0.00 | 0.36 | 0.05 | 74 | 1016.4 |
| 20260901053453 | 26 | 98 | 12.9 | 30.6 | 0.00 | 0.36 | 0.05 | 74 | 1016.1 |
| 20260901052722 | 26 | 82 | 14.5 | 30.6 | 0.00 | 0.36 | 0.05 | 77 | 1016.3 |
| 20260901052221 | 26 | 126 | 17.7 | 30.6 | 0.00 | 0.36 | 0.05 | 77 | 1016.2 |
| 20260901051722 | 26 | 113 | 17.7 | 32.2 | 0.00 | 0.36 | 0.05 | 76 | 1016.1 |
| 20260901051223 | 26 | 86 | 12.9 | 33.8 | 0.00 | 0.36 | 0.05 | 76 | 1015.9 |
| 20260901050721 | 26 | 75 | 17.7 | 33.8 | 0.00 | 0.36 | 0.05 | 76 | 1016.2 |
| 20260901050222 | 26 | 87 | 12.9 | 38.6 | 0.00 | 0.38 | 0.05 | 77 | 1016.1 |
| 20260901045722 | 26 | 85 | 12.9 | 33.8 | 0.00 | 0.41 | 0.05 | 76 | 1016.1 |